Meteo Giornale » Osservazioni meteo Stati Uniti (USA) » Haines
ore: 11:54 - Osservazioni Meteo Haines
Lat. 59° 15' N Lon. 135° 31' W Alt. 5 metri s.l.m.
12 °C
Pioggia Foschia
Temp. 24 Ore
12 °C
16 °C
Est
24 Km/h
Dew point 11 °C
Umidità 93 %
Visibilità 8 Km
Il sole sorge alle ore 05:57
Il sole tramonta alle ore 20:06
| Data e Ora | Cielo e Fenomeni | T °C | DP °C | Um. % | Pres. hPa | Vis. km | Vento km/h | |
|---|---|---|---|---|---|---|---|---|
| Oggi h: 11:54 | Pioggia Foschia | 12 | 11 | 93 | 1000 | 8 | E 24 | |
| Oggi h: 10:54 | Pioggia | 13 | 11 | 87 | 1000 | 11 | E 20.3 | |
| Oggi h: 10:33 | Pioggia | 13 | 11 | 87 | 1000 | 14 | E 22.2 | |
| Oggi h: 10:22 | Pioggia | 13 | 11 | 87 | 1000 | 10 | E 20.3 | |
| Oggi h: 09:54 | Coperto | 13 | 11 | 87 | 1001 | 10 | E 16.7 | |
| Oggi h: 08:54 | Coperto | 13 | 11 | 87 | 1001 | 10 | E 20.3 | |
| Oggi h: 08:18 | Coperto | 13 | 11 | 87 | 1001 | 10 | E 16.7 | |
| Oggi h: 07:54 | Coperto | 13 | 11 | 87 | 1002 | 10 | E 18.5 | |
| Oggi h: 06:54 | Coperto | 12 | 11 | 93 | 1002 | 10 | E 14.8 | |
| Oggi h: 05:54 | Pioggia | 12 | 11 | 93 | 1003 | 10 | E 13 | |
| Oggi h: 04:54 | Coperto | 12 | 11 | 93 | 1004 | 10 | E 9.3 | |
| Oggi h: 04:34 | Coperto | 12 | 11 | 93 | 1004 | 10 | E/NE 9.3 | |
| Oggi h: 03:54 | Pioggia | 12 | 11 | 93 | 1004 | 10 | E 9.3 | |
| Oggi h: 03:19 | Pioggia | 12 | 11 | 93 | 1005 | 14 | E 13 | |
| Oggi h: 02:54 | Pioggia | 12 | 11 | 93 | 1005 | 11 | E 9.3 | |
| Oggi h: 01:54 | Pioggia | 12 | 11 | 93 | 1006 | 10 | E 14.8 | |
| Oggi h: 01:14 | Coperto | 13 | 11 | 87 | 1007 | 10 | E 11.1 | |
| Oggi h: 00:54 | Coperto | 13 | 11 | 87 | 1007 | 10 | E 11.1 | |
| Oggi h: 00:14 | Coperto | 12 | 11 | 93 | 1007 | 10 | E/SE 9.3 | |
| Ieri h: 23:54 | Coperto | 12 | 10 | 87 | 1007 | 10 | E/SE 11.1 | |
| Ieri h: 23:50 | Coperto | 12 | 10 | 87 | 1007 | 10 | E/SE 11.1 | |
| Ieri h: 23:20 | Coperto | 12 | 10 | 87 | 1008 | 10 | E 11.1 | |
| Ieri h: 22:54 | Coperto | 13 | 10 | 81 | 1008 | 10 | E/SE 11.1 | |
| Ieri h: 21:54 | Coperto | 13 | 10 | 81 | 1008 | 10 | N 7.4 | |
| Ieri h: 20:54 | Coperto | 12 | 11 | 93 | 1009 | 10 | E/NE 7.4 | |
| Ieri h: 19:54 | Coperto | 13 | 10 | 81 | 1009 | 10 | N 0 | |
| Ieri h: 18:54 | Coperto | 13 | 11 | 87 | 1009 | 10 | N 0 | |
| Ieri h: 17:54 | Coperto | 15 | 11 | 76 | 1008 | 10 | E/SE 7.4 | |
| Ieri h: 16:54 | Coperto | 14 | 11 | 82 | 1009 | 10 | N 5.5 | |
| Ieri h: 15:54 | Coperto | 16 | 11 | 72 | 1009 | 10 | NO 7.4 | |
| Ieri h: 14:54 | Coperto | 16 | 11 | 72 | 1010 | 10 | NO 7.4 | |
| Ieri h: 13:54 | Coperto | 14 | 10 | 76 | 1010 | 10 | NO 11.1 | |
| Ieri h: 12:54 | Coperto | 14 | 9 | 71 | 1010 | 10 | NO 14.8 | |



